Probability
42 48 48 48 42 32 13 16 6 0 23 77 94 87 74 19 0 3 0 0 0 0 0 0 0 0 0 0 0 0 0 0 0 0 0 0 0 0
74 71 61 48 48 45 39 26 26 13 19 81 90 87 61 13 0 0 0 0 0 0 0 0 0 0 0 0 0 0 0 0 0 0 0 0 0 0
61 39 35 42 48 42 45 48 39 45 16 48 71 58 16 3 0 0 0 0 0 0 0 0 0 0 0 0 0 0 0 0 0 0 0 0 0 0
42 32 16 0 16 26 16 26 32 42 29 16 32 23 6 0 0 0 0 0 0 0 0 0 0 0 0 0 0 0 0 0 0 0 0 0 0 0
23 16 10 3 0 6 6 10 19 13 10 3 0 6 0 0 0 0 0 0 0 0 0 0 0 0 0 0 0 0 0 0 0 0 0 0 0 0
13 10 3 0 0 0 0 3 3 3 0 0 0 0 0 0 0 0 0 0 0 0 0 0 0 0 0 0 0 0 0 0 0 0 0 0 0 0
3 0 0 0 0 0 0 0 0 3 0 0 0 0 0 0 0 0 0 0 0 0 0 0 0 0 0 0 0 0 0 0 0 0 0 0 0 0
3 0 0 0 0 0 0 0 0 0 0 0 0 0 0 0 0 0 0 0 0 0 0 0 0 0 0 0 0 0 0 0 0 0 0 0 0 0
0 0 0 0 0 0 0 0 0 0 0 0 0 0 0 0 0 0 0 0 0 0 0 0 0 0 0 0 0 0 0 0 0 0 0 0 0 0
0 0 0 0 0 0 0 0 0 0 0 0 0 0 0 0 0 0 0 0 0 0 0 0 0 0 0 0 0 0 0 0 0 0 0 0 0 0
0 0 0 0 0 0 0 0 0 0 0 0 0 0 0 0 0 0 0 0 0 0 0 0 0 0 0 0 0 0 0 0 0 0 0 0 0 0
0 0 0 0 0 0 0 0 0 0 0 0 0 0 0 0 0 0 0 0 0 0 0 0 0 0 0 0 0 0 0 0 0 0 0 0 0 0
0 0 0 0 0 0 0 0 0 0 0 0 0 0 0 0 0 0 0 0 0 0 0 0 0 0 0 0 0 0 0 0 0 0 0 0 0 0
0 0 0 0 0 0 0 0 0 0 0 0 0 0 0 0 0 0 0 0 0 0 0 0 0 0 0 0 0 0 0 0 0 0 0 0 0 0
0 0 0 0 0 0 0 0 0 0 0 0 0 0 0 0 0 0 0 0 0 0 0 0 0 0 0 0 0 0 0 0 0 0 0 0 0 0
0 0 0 0 0 0 0 0 0 0 0 0 0 0 0 0 0 0 0 0 0 0 0 0 0 0 0 0 0 0 0 0 0 0 0 0 0 0
0 0 0 0 0 0 0 0 0 0 0 0 0 0 0 0 0 0 0 0 0 0 0 0 0 0 0 0 0 0 0 0 0 0 0 0 0 0
0 0 0 0 0 0 0 0 0 0 0 0 0 0 0 0 0 0 0 0 0 0 0 0 0 0 0 0 0 0 0 0 0 0 0 0 0 0
0 0 0 0 0 0 0 0 0 0 0 0 0 0 0 0 0 0 0 0 0 0 0 0 0 0 0 0 0 0 0 0 0 0 0 0 0 0
0 0 0 0 0 0 0 0 0 0 0 0 0 0 0 0 0 0 0 0 0 0 0 0 0 0 0 0 0 0 0 0 0 0 0 0 0 0
0 0 0 0 0 0 0 0 0 0 0 0 0 0 0 0 0 0 0 0 0 0 0 0 0 0 0 0 0 0 0 0 0 0 0 0 0 0
0 0 0 0 0 0 0 0 0 0 0 0 0 0 0 0 0 0 0 0 0 0 0 0 0 0 0 0 0 0 0 0 0 0 0 0 0 0
0 0 0 0 0 0 0 0 0 0 0 0 0 0 0 0 0 0 0 0 0 0 0 0 0 0 0 0 0 0 0 0 0 0 0 0 0 0
Height
5767 5765 5762 5759 5756 5753 5751 5749 5749 5750 5752 5754 5757 5758 5760 5765 5768 5770 5771 5774 5777 5779 5781 5783 5785 5786 5788 5789 5790 5792 5793 5795 5797 5798 5800 5801 5804 5808
5761 5759 5756 5753 5750 5747 5744 5742 5741 5742 5745 5747 5750 5752 5754 5757 5760 5763 5765 5767 5769 5771 5773 5775 5777 5778 5780 5781 5783 5784 5786 5787 5788 5789 5791 5793 5796 5799
5753 5752 5749 5747 5744 5741 5738 5735 5734 5735 5737 5739 5742 5744 5747 5750 5752 5755 5758 5760 5762 5764 5766 5767 5769 5771 5773 5775 5776 5778 5779 5779 5780 5781 5783 5785 5788 5791
5745 5744 5742 5741 5738 5735 5732 5729 5728 5728 5729 5731 5734 5736 5739 5741 5744 5747 5750 5752 5755 5756 5758 5760 5763 5765 5766 5768 5770 5771 5772 5773 5773 5774 5775 5778 5781 5783
5737 5736 5735 5734 5732 5729 5727 5724 5722 5722 5722 5724 5726 5729 5731 5734 5737 5739 5742 5744 5747 5749 5751 5753 5756 5758 5760 5762 5763 5764 5765 5766 5767 5768 5769 5770 5773 5776
5728 5728 5728 5727 5726 5724 5721 5719 5717 5717 5717 5718 5720 5722 5724 5726 5729 5731 5734 5736 5739 5742 5744 5747 5750 5752 5754 5756 5757 5758 5759 5760 5761 5762 5763 5764 5766 5768
5719 5719 5719 5720 5719 5718 5716 5714 5713 5712 5712 5712 5713 5715 5717 5719 5722 5724 5727 5729 5732 5735 5738 5741 5744 5746 5748 5749 5751 5752 5753 5755 5756 5757 5758 5759 5760 5762
5708 5709 5710 5712 5712 5711 5710 5709 5708 5707 5707 5707 5708 5709 5710 5712 5715 5718 5720 5723 5725 5729 5732 5735 5738 5741 5743 5744 5746 5748 5749 5750 5752 5753 5754 5755 5756 5757
5696 5699 5701 5703 5704 5705 5705 5704 5703 5703 5703 5703 5704 5705 5705 5707 5709 5712 5715 5717 5720 5723 5727 5730 5734 5736 5739 5740 5742 5744 5745 5746 5747 5748 5749 5750 5751 5751
5683 5688 5691 5694 5696 5697 5698 5698 5698 5698 5698 5699 5701 5701 5703 5704 5706 5709 5711 5713 5716 5719 5723 5726 5730 5733 5735 5737 5739 5740 5741 5742 5743 5744 5744 5745 5745 5746
5669 5675 5680 5684 5687 5689 5691 5692 5693 5693 5694 5695 5697 5699 5700 5702 5704 5706 5708 5711 5713 5716 5720 5723 5727 5729 5731 5734 5735 5736 5737 5738 5739 5739 5739 5740 5740 5740
5656 5663 5668 5673 5678 5681 5683 5685 5687 5688 5689 5691 5693 5695 5697 5699 5701 5703 5705 5708 5710 5714 5717 5721 5724 5726 5728 5730 5731 5732 5733 5734 5735 5735 5735 5735 5735 5735
5641 5649 5656 5663 5668 5672 5676 5678 5680 5682 5684 5686 5688 5690 5693 5695 5698 5700 5702 5705 5708 5711 5715 5718 5721 5723 5725 5727 5728 5729 5730 5730 5730 5730 5730 5730 5729 5728
5626 5635 5644 5651 5658 5663 5667 5671 5674 5676 5678 5681 5683 5686 5689 5692 5694 5696 5699 5702 5706 5709 5712 5715 5717 5720 5722 5724 5725 5726 5726 5726 5726 5725 5725 5724 5722 5721
5612 5622 5631 5639 5647 5653 5658 5663 5667 5670 5673 5676 5679 5682 5684 5687 5690 5693 5697 5700 5703 5706 5709 5712 5714 5716 5718 5720 5721 5721 5721 5721 5721 5720 5719 5718 5716 5714
5600 5610 5619 5627 5636 5643 5649 5655 5659 5663 5667 5670 5674 5677 5680 5683 5687 5691 5694 5698 5701 5704 5706 5709 5711 5713 5714 5715 5716 5716 5716 5716 5714 5713 5711 5710 5708 5706
5589 5599 5609 5618 5627 5634 5641 5647 5652 5657 5661 5665 5668 5672 5676 5680 5684 5688 5692 5695 5698 5701 5703 5705 5707 5708 5710 5710 5710 5710 5709 5708 5707 5705 5703 5701 5700 5698
5581 5591 5602 5611 5620 5627 5634 5640 5645 5651 5655 5659 5663 5668 5672 5677 5681 5685 5689 5692 5695 5697 5700 5701 5703 5704 5704 5704 5704 5703 5702 5701 5699 5697 5695 5693 5691 5689
5576 5586 5596 5605 5614 5621 5628 5634 5640 5645 5650 5655 5659 5664 5669 5674 5678 5683 5686 5689 5691 5693 5695 5697 5698 5698 5699 5698 5697 5696 5695 5693 5692 5689 5687 5685 5682 5680
5573 5583 5592 5601 5609 5617 5623 5629 5635 5641 5646 5652 5657 5662 5667 5671 5676 5679 5682 5685 5687 5689 5690 5691 5691 5691 5691 5691 5690 5688 5687 5685 5683 5680 5678 5675 5673 5671
5572 5581 5590 5598 5606 5613 5620 5626 5632 5638 5644 5650 5655 5660 5664 5669 5673 5676 5678 5680 5682 5684 5684 5685 5684 5684 5683 5683 5682 5680 5678 5675 5673 5671 5669 5666 5664 5662
5572 5581 5589 5596 5604 5611 5618 5624 5631 5637 5643 5648 5653 5657 5662 5666 5669 5672 5673 5675 5677 5678 5678 5678 5677 5677 5676 5675 5673 5672 5670 5667 5665 5662 5660 5658 5655 5653
5574 5582 5589 5597 5604 5611 5618 5624 5630 5636 5642 5646 5651 5655 5659 5662 5665 5667 5669 5670 5671 5672 5672 5671 5671 5670 5669 5667 5665 5663 5661 5659 5657 5655 5653 5650 5648 5645
Wind_Speed
28 27 26 26 27 27 26 26 26 27 29 30 30 30 29 28 28 26 25 26 27 28 29 30 31 32 32 32 31 31 31 32 33 34 33 34 37 42
30 29 27 26 26 26 26 25 25 25 27 30 30 30 30 29 28 27 27 26 26 28 29 29 30 30 30 30 29 28 28 29 30 30 31 34 35 38
30 29 27 25 25 26 25 24 23 24 25 28 29 30 30 29 29 28 27 27 27 28 28 28 29 28 28 26 26 25 25 25 25 26 28 31 36 41
29 28 27 25 25 25 24 22 22 22 24 26 28 29 29 30 29 29 29 29 29 28 28 28 27 26 25 24 24 23 23 23 24 25 25 28 33 39
30 28 26 25 24 24 23 22 21 21 22 24 26 28 30 30 30 30 31 31 30 28 27 27 26 25 24 24 23 23 23 23 23 23 23 24 29 34
31 28 26 25 24 23 22 21 20 19 20 22 26 29 30 30 30 31 31 31 30 29 28 27 26 25 24 23 22 21 20 19 18 17 17 17 20 25
33 29 27 25 24 23 21 21 20 18 19 21 25 28 30 31 31 30 30 30 29 28 27 25 24 22 21 19 18 16 15 14 14 13 13 14 15 16
36 33 30 27 25 24 22 21 20 19 19 19 21 24 28 31 32 31 30 29 28 26 24 22 20 18 16 16 15 15 14 14 14 15 16 16 18 19
42 37 33 30 27 25 23 22 20 18 17 17 18 20 23 27 29 28 27 27 26 24 22 19 17 15 14 14 14 14 15 15 15 16 16 17 18 20
44 39 35 32 30 27 24 22 20 18 17 17 17 18 19 20 22 24 25 23 22 20 18 16 14 13 13 13 13 13 13 13 14 14 15 16 17 18
45 40 37 35 32 29 27 24 21 20 19 19 18 18 19 21 23 24 23 23 20 18 16 14 13 12 12 12 11 11 11 11 12 12 13 14 16 17
46 42 39 36 34 32 30 26 23 21 20 20 20 19 20 21 22 23 21 19 17 15 13 12 11 11 10 10 9 9 9 10 10 11 12 14 16 18
49 45 41 39 36 35 33 29 26 23 21 20 20 19 18 19 21 21 19 17 15 14 12 11 11 10 9 9 8 8 9 10 11 13 14 16 17 20
50 48 45 42 40 37 35 32 28 25 22 20 19 18 17 18 20 19 17 15 14 13 13 12 10 10 9 8 8 9 10 12 14 15 17 18 20 21
49 48 46 44 42 39 37 34 30 27 24 21 19 18 18 18 18 17 16 15 15 14 13 11 10 10 9 9 10 11 13 15 17 19 20 21 22 23
47 47 46 46 43 40 37 34 31 27 24 22 20 19 18 18 18 17 17 16 16 15 14 12 11 11 11 12 14 16 18 19 21 23 24 25 26 26
47 46 45 43 40 38 36 33 30 27 25 23 21 20 19 19 19 18 18 18 17 16 14 13 13 13 15 17 18 20 22 24 25 26 27 28 28 28
46 46 43 39 37 35 33 31 29 27 25 23 22 21 21 21 20 19 19 18 17 16 15 14 15 16 18 20 22 23 25 26 27 28 30 30 30 29
45 43 41 38 35 33 31 29 27 25 24 23 23 23 23 22 20 19 19 18 17 16 15 16 17 19 21 23 24 25 27 28 30 31 31 31 31 30
43 41 39 36 33 31 29 27 26 25 25 24 25 24 23 22 20 19 18 17 16 15 16 17 19 21 23 24 26 28 30 31 32 32 32 32 32 32
38 39 37 34 31 30 28 28 27 27 26 25 24 23 22 21 20 18 17 15 15 15 16 19 21 23 25 27 28 29 31 32 31 31 32 32 32 33
35 35 33 31 30 30 29 29 28 27 26 25 23 22 21 21 19 17 16 15 15 16 18 21 23 24 25 26 27 27 27 28 29 30 31 32 33 33
31 29 29 30 31 31 30 29 28 27 25 22 21 20 20 19 17 16 15 15 16 18 20 21 23 23 24 25 26 27 27 27 27 28 29 30 31 31
Wind_Direction
289 294 301 308 311 308 301 290 276 264 257 254 253 255 257 256 257 259 259 260 260 261 260 261 262 263 263 263 262 263 264 262 262 261 257 252 246 241
283 288 294 303 309 309 303 293 281 268 258 254 252 254 255 255 254 255 257 259 261 260 260 261 261 262 262 263 263 263 264 264 261 258 255 249 242 238
280 284 290 298 305 310 305 296 286 273 262 255 252 252 252 252 252 253 256 259 261 261 261 262 261 260 260 260 260 261 263 265 261 259 254 248 240 234
275 279 285 292 301 308 309 300 290 278 265 256 251 249 249 250 252 254 256 260 262 262 261 261 258 258 258 258 259 263 265 265 263 261 257 250 244 238
270 274 280 287 295 304 307 303 293 281 268 257 249 247 248 251 253 254 257 258 262 261 260 258 257 255 258 258 260 263 264 264 264 264 263 257 250 248
264 269 276 283 289 298 302 301 294 283 269 259 251 248 249 251 253 254 255 257 257 257 256 255 254 254 257 258 258 258 259 261 261 262 263 265 261 258
258 264 272 278 283 290 295 296 292 283 271 262 254 251 250 251 251 253 254 253 251 250 247 248 248 252 255 254 251 250 252 255 256 259 262 265 267 267
254 260 267 273 276 281 287 289 288 281 274 265 257 254 249 246 245 247 246 242 240 238 236 238 242 244 243 243 246 249 252 256 260 264 266 268 269 269
250 255 262 268 271 273 278 281 281 278 275 266 258 255 248 241 235 233 229 228 230 229 226 227 231 235 238 244 248 252 256 259 263 265 268 269 270 271
244 249 256 262 266 268 270 274 275 273 269 264 255 248 242 235 228 226 223 221 221 218 218 220 224 230 237 243 247 249 252 256 260 264 268 271 274 277
240 244 249 254 260 263 264 266 268 268 265 259 255 252 247 242 237 231 225 220 214 212 211 215 222 228 232 237 241 244 250 256 262 267 273 279 283 286
236 238 241 247 254 258 260 260 261 261 260 256 253 254 248 242 240 234 225 214 209 208 208 211 216 222 228 231 234 243 251 259 266 274 281 287 290 292
231 232 235 241 247 252 254 254 254 255 254 251 251 250 246 242 238 230 219 209 205 204 203 207 210 212 216 223 233 244 257 268 276 281 287 292 296 300
226 228 232 236 241 244 247 249 249 248 247 246 247 247 243 238 235 226 215 207 204 202 199 201 205 208 214 228 243 257 271 278 283 286 291 295 298 299
220 223 225 229 232 236 239 242 243 241 240 239 240 239 237 234 228 218 208 200 198 197 197 200 207 215 229 246 261 272 278 282 285 287 289 292 295 297
212 217 219 221 224 228 232 234 235 235 234 233 230 230 230 223 215 207 202 199 199 200 203 209 220 234 249 261 270 275 278 281 284 287 291 294 296 296
204 209 213 215 217 220 224 226 227 229 228 226 225 224 219 211 204 202 203 204 205 208 213 223 237 252 263 270 273 276 280 283 286 289 293 295 296 294
199 200 204 207 209 212 216 218 221 223 223 220 218 213 205 200 201 205 208 210 212 218 227 239 251 261 268 273 277 280 282 284 287 291 294 294 292 289
197 196 198 200 203 206 208 211 214 215 214 210 205 199 196 198 203 207 210 214 219 228 239 251 261 268 273 277 281 283 286 287 289 291 292 290 287 286
195 194 194 196 198 200 202 203 203 202 199 196 193 192 195 200 205 209 213 220 228 238 249 260 267 273 278 282 285 288 289 290 291 291 289 287 285 284
192 189 189 191 192 192 191 189 188 187 187 187 189 192 197 203 208 213 219 228 238 249 259 268 275 280 284 287 290 293 294 294 293 291 288 286 286 286
184 184 185 186 183 181 180 180 181 182 183 186 190 196 202 207 212 218 227 238 249 258 267 274 280 285 289 292 294 295 294 293 292 290 288 288 288 288
172 176 179 179 178 176 176 177 179 182 185 189 196 202 207 211 217 226 237 249 259 267 273 279 283 286 290 293 295 297 296 295 293 290 288 287 287 289